Union Aéronautique de la Côte d'Azur

Union Aéronautique de la Côte d'Azur
UACA
Approuvé A.T.O. EASA – N°FR.ATO.0108

UNION des aéroclubs
Cannes “Ailes d’Azur”, Nice “Côte d’Azur”, Grasse “St Exupery”, ACCA “Francis Séverac”

Un cache-pitot se trouve à bord de chaque avion. Pensez à le mettre en place à la fin de chaque vol !

Avant de quitter l'avion, vérifiez que vous n'emportez pas la checklist

Un vol ne s'entreprend qu'avec un pare-brise parfaitement propre, il en va de votre sécurité, et de celle des autres

Après chaque vol, merci de mettre en place les pares-soleil!


Météo à Cannes:
METAR
LFMD 221230Z AUTO VRB04KT 9999 SCT100 OVC150 22/14 Q1021 BECMG 07015G25KT =
LFMD 220800Z 2209/2309 01005KT 9999 FEW050 BKN100 BECMG 2210/2211 07015G25KT BECMG 2305/2307 VRB03KT

TAF
LFMD 220800Z 2209/2309 01005KT 9999 FEW050 BKN100 BECMG 2210/2211 07015G25KT BECMG 2305/2307 VRB03KT =

SR / SS: 05:57 / 16:35 UTC (LFMD 2020-10-22)